Weather History for Philadelphia Wings Airport, PA

Change the Weather History Date:

Sunday, June 8, 2014

  Actual Average (KPNE) Record (KPNE)
Temperature  
Mean Temperature 72 °F -  
Max Temperature 86 °F 76 °F 97 °F (2008)
Min Temperature 57 °F 57 °F 50 °F (1997)
Cooling Degree Days 6    
Growing Degree Days 22 (Base 50)    
Moisture  
Dew Point 55 °F    
Average Humidity 58    
Maximum Humidity 94    
Minimum Humidity 33    
Precipitation  
Precipitation 0.00 in - - ()
Sea Level Pressure  
Sea Level Pressure 29.93 in    
Wind  
Wind Speed 2 mph (South)    
Max Wind Speed 9 mph    
Max Gust Speed -    
Visibility 9 miles    
Events      
Averages and records for this station are not official NWS values.
T = Trace of Precipitation, MM = Missing Value Source: NWS Daily Summary

Daily Weather History Graph

Daily Weather History Graph

Search for Another Location

Airport:

Trip Planner

Search our weather history database for the weather conditions in past years. The results will help you decide how hot, cold, wet, or windy it might be!

Date:

Astronomy

Jun. 08, 2014 Rise Set
Actual Time 5:31 AM EDT 8:28 PM EDT
Civil Twilight 4:59 AM EDT 9:01 PM EDT
Nautical Twilight 4:17 AM EDT 9:42 PM EDT
Astronomical Twilight 3:29 AM EDT 10:30 PM EDT
Moon 3:44 PM EDT (6/8) 2:23 AM EDT (6/8)
Length of Visible Light 16h 02m
Length of Day
14h 57m
Waxing Gibbous, 77% of the Moon is Illuminated
Jun 8
Waxing Gibbous
Jun 13
Full
Jun 19
Last Quarter
Jun 27
New
Jul 5
First Quarter

Hourly Weather History & Observations

Time (EDT) Temp. Heat Index Dew Point Humidity Pressure Visibility Wind Dir Wind Speed Gust Speed Precip Events Conditions
12:15 AM 62.6 °F - 59.0 °F 88% 29.97 in 10.0 mi Calm Calm - N/A   Clear
12:35 AM 62.6 °F - 59.0 °F 88% 29.97 in 10.0 mi Calm Calm - N/A   Clear
12:55 AM 64.4 °F - 59.0 °F 83% 29.96 in 10.0 mi Calm Calm - N/A   Clear
1:15 AM 62.6 °F - 59.0 °F 88% 29.96 in 10.0 mi Calm Calm - N/A   Clear
1:35 AM 62.6 °F - 57.2 °F 82% 29.96 in 10.0 mi Calm Calm - N/A   Clear
1:55 AM 60.8 °F - 57.2 °F 88% 29.96 in 10.0 mi Calm Calm - N/A   Clear
2:15 AM 60.8 °F - 59.0 °F 94% 29.95 in 10.0 mi Calm Calm - N/A   Clear
2:35 AM 60.8 °F - 57.2 °F 88% 29.95 in 10.0 mi Calm Calm - N/A   Clear
2:55 AM 60.8 °F - 57.2 °F 88% 29.95 in 10.0 mi Calm Calm - N/A   Clear
3:15 AM 59.0 °F - 55.4 °F 88% 29.95 in 10.0 mi Calm Calm - N/A   Clear
3:35 AM 59.0 °F - 55.4 °F 88% 29.95 in 3.0 mi Calm Calm - N/A   Clear
3:55 AM 59.0 °F - 55.4 °F 88% 29.95 in 2.5 mi Calm Calm - N/A   Clear
4:15 AM 59.0 °F - 55.4 °F 88% 29.95 in 5.0 mi Calm Calm - N/A   Clear
4:35 AM 59.0 °F - 55.4 °F 88% 29.95 in 3.0 mi Calm Calm - N/A   Clear
4:55 AM 59.0 °F - 55.4 °F 88% 29.95 in 3.0 mi Calm Calm - N/A   Clear
5:15 AM 59.0 °F - 55.4 °F 88% 29.95 in 2.5 mi Calm Calm - N/A   Clear
5:35 AM 57.2 °F - 55.4 °F 94% 29.95 in 1.0 mi Calm Calm - N/A   Unknown
5:55 AM 57.2 °F - 55.4 °F 94% 29.95 in 4.0 mi Calm Calm - N/A   Clear
6:15 AM 59.0 °F - 55.4 °F 88% 29.96 in 5.0 mi Calm Calm - N/A   Clear
6:35 AM 60.8 °F - 59.0 °F 94% 29.96 in 10.0 mi Calm Calm - N/A   Clear
6:55 AM 62.6 °F - 59.0 °F 88% 29.96 in 10.0 mi Calm Calm - N/A   Clear
7:15 AM 64.4 °F - 60.8 °F 88% 29.97 in 10.0 mi Calm Calm - N/A   Clear
7:35 AM 66.2 °F - 59.0 °F 78% 29.97 in 10.0 mi Calm Calm - N/A   Clear
7:55 AM 69.8 °F - 59.0 °F 68% 29.97 in 10.0 mi Calm Calm - N/A   Clear
8:15 AM 71.6 °F - 59.0 °F 64% 29.97 in 10.0 mi Calm Calm - N/A   Clear
8:35 AM 73.4 °F - 59.0 °F 61% 29.97 in 10.0 mi Calm Calm - N/A   Clear
8:55 AM 75.2 °F - 59.0 °F 57% 29.97 in 10.0 mi West 3.5 mph - N/A   Clear
9:15 AM 77.0 °F - 57.2 °F 50% 29.97 in 10.0 mi West 8.1 mph - N/A   Scattered Clouds
9:35 AM 77.0 °F - 57.2 °F 50% 29.97 in 10.0 mi West 4.6 mph - N/A   Scattered Clouds
9:55 AM 78.8 °F - 59.0 °F 51% 29.97 in 10.0 mi SW 5.8 mph - N/A   Clear
10:35 AM 80.6 °F 81.1 °F 59.0 °F 48% 29.97 in 10.0 mi Calm Calm - N/A   Clear
10:55 AM 80.6 °F 80.3 °F 53.6 °F 39% 29.97 in 10.0 mi Calm Calm - N/A   Scattered Clouds
11:15 AM 82.4 °F - 51.8 °F 35% 29.96 in 10.0 mi South 8.1 mph - N/A   Scattered Clouds
11:35 AM 82.4 °F - 51.8 °F 35% 29.96 in 10.0 mi ESE 3.5 mph - N/A   Scattered Clouds
11:55 AM 82.4 °F 81.4 °F 53.6 °F 37% 29.96 in 10.0 mi South 5.8 mph - N/A   Clear
12:15 PM 84.2 °F - 51.8 °F 33% 29.95 in 10.0 mi South 6.9 mph - N/A   Clear
12:35 PM 82.4 °F 81.4 °F 53.6 °F 37% 29.94 in 10.0 mi South 3.5 mph - N/A   Clear
12:55 PM 82.4 °F - 51.8 °F 35% 29.94 in 10.0 mi SSW 5.8 mph - N/A   Clear
1:15 PM 82.4 °F - 51.8 °F 35% 29.93 in 10.0 mi South 4.6 mph - N/A   Clear
1:35 PM 82.4 °F - 51.8 °F 35% 29.94 in 10.0 mi South 8.1 mph - N/A   Clear
1:55 PM 80.6 °F - 51.8 °F 37% 29.93 in 10.0 mi SSE 9.2 mph - N/A   Clear
2:15 PM 82.4 °F 81.4 °F 53.6 °F 37% 29.92 in 10.0 mi South 8.1 mph - N/A   Clear
2:35 PM 86.0 °F 84.2 °F 53.6 °F 33% 29.92 in 10.0 mi SSW 9.2 mph - N/A   Clear
2:55 PM 84.2 °F - 51.8 °F 33% 29.91 in 10.0 mi SSW 6.9 mph - N/A   Clear
3:15 PM 84.2 °F 82.8 °F 53.6 °F 35% 29.90 in 10.0 mi SSW 9.2 mph - N/A   Clear
3:35 PM 82.4 °F - 51.8 °F 35% 29.90 in 10.0 mi South 8.1 mph - N/A   Clear
3:55 PM 82.4 °F - 51.8 °F 35% 29.90 in 10.0 mi South 8.1 mph - N/A   Clear
4:15 PM 80.6 °F - 51.8 °F 37% 29.89 in 10.0 mi South 8.1 mph - N/A   Clear
4:35 PM 82.4 °F 81.4 °F 53.6 °F 37% 29.89 in 10.0 mi South 4.6 mph - N/A   Clear
4:55 PM 80.6 °F 80.3 °F 53.6 °F 39% 29.87 in 10.0 mi South 3.5 mph - N/A   Clear
5:15 PM 80.6 °F 80.3 °F 53.6 °F 39% 29.87 in 10.0 mi SSE 5.8 mph - N/A   Clear
5:35 PM 80.6 °F 80.3 °F 53.6 °F 39% 29.87 in 10.0 mi South 5.8 mph - N/A   Clear
5:55 PM 80.6 °F 80.3 °F 53.6 °F 39% 29.86 in 10.0 mi South 5.8 mph - N/A   Clear
6:15 PM 80.6 °F 80.5 °F 55.4 °F 42% 29.86 in 10.0 mi South 4.6 mph - N/A   Clear
6:35 PM 78.8 °F - 53.6 °F 42% 29.86 in 10.0 mi South 6.9 mph - N/A   Clear
6:55 PM 78.8 °F - 53.6 °F 42% 29.86 in 10.0 mi South 5.8 mph - N/A   Clear
7:15 PM 78.8 °F - 53.6 °F 42% 29.87 in 10.0 mi SSW 4.6 mph - N/A   Clear
7:35 PM 78.8 °F - 53.6 °F 42% 29.88 in 10.0 mi South 8.1 mph - N/A   Clear
7:55 PM 77.0 °F - 53.6 °F 44% 29.88 in 10.0 mi South 5.8 mph - N/A   Clear
8:15 PM 77.0 °F - 53.6 °F 44% 29.88 in 10.0 mi SSW 5.8 mph - N/A   Clear
8:35 PM 73.4 °F - 53.6 °F 50% 29.88 in 10.0 mi South 3.5 mph - N/A   Clear
8:55 PM 73.4 °F - 53.6 °F 50% 29.88 in 10.0 mi SSE 5.8 mph - N/A   Clear
9:15 PM 73.4 °F - 51.8 °F 47% 29.90 in 10.0 mi South 4.6 mph - N/A   Clear
9:35 PM 73.4 °F - 51.8 °F 47% 29.90 in 10.0 mi South 6.9 mph - N/A   Clear
9:55 PM 73.4 °F - 51.8 °F 47% 29.90 in 10.0 mi SSE 3.5 mph - N/A   Clear
10:15 PM 71.6 °F - 51.8 °F 50% 29.90 in 10.0 mi SSE 3.5 mph - N/A   Clear
10:35 PM 71.6 °F - 51.8 °F 50% 29.90 in 10.0 mi South 4.6 mph - N/A   Scattered Clouds
10:55 PM 71.6 °F - 53.6 °F 53% 29.90 in 10.0 mi South 5.8 mph - N/A   Scattered Clouds
11:15 PM 71.6 °F - 53.6 °F 53% 29.90 in 10.0 mi South 5.8 mph - N/A   Scattered Clouds
11:35 PM 71.6 °F - 55.4 °F 57% 29.90 in 10.0 mi SSE 3.5 mph - N/A   Scattered Clouds
11:55 PM 71.6 °F - 55.4 °F 57% 29.90 in 10.0 mi South 3.5 mph - N/A   Scattered Clouds